Clarksburg, WV

11:27 PM EDT on July 24, 2017 (GMT -0400)
Benedum

Weather History for KCKB - January, 2013

Change the Weather History Date:

Monday, January 21, 2013

  Actual Average Record
Temperature  
Mean Temperature 25 °F -  
Max Temperature 33 °F 37 °F 71 °F (1951)
Min Temperature 15 °F 19 °F -16 °F (1984)
Degree Days  
Heating Degree Days 40    
Moisture  
Dew Point 13 °F    
Average Humidity 61    
Maximum Humidity 81    
Minimum Humidity 42    
Precipitation  
Precipitation 0.00 in - - ()
Sea Level Pressure  
Sea Level Pressure 30.02 in    
Wind  
Wind Speed 9 mph (West)    
Max Wind Speed 22 mph    
Max Gust Speed 29 mph    
Visibility 8 miles    
Events Snow    
Averages and records for this station are not official NWS values.
T = Trace of Precipitation, MM = Missing Value Source: NWS Daily Summary

Daily Weather History Graph

Daily Weather History Graph

Search for Another Location

Airport or City:

Trip Planner

Search our weather history database for the weather conditions in past years. The results will help you decide how hot, cold, wet, or windy it might be!

Date:

Astronomy

Jan. 21, 2013 Rise Set
Actual Time 7:36 AM EST 5:29 PM EST
Civil Twilight 7:07 AM EST 5:58 PM EST
Nautical Twilight 6:34 AM EST 6:30 PM EST
Astronomical Twilight 6:02 AM EST 7:02 PM EST
Moon 1:07 PM EST (1/21) 3:02 AM EST (1/21)
Length of Visible Light 10h 50m
Length of Day
9h 52m
Waxing Gibbous, 75% of the Moon is Illuminated
Jan 21
Waxing Gibbous
Jan 26
Full
Feb 3
Last Quarter
Feb 10
New
Feb 17
First Quarter

Hourly Weather History & Observations

Time (EST) Temp. Windchill Dew Point Humidity Pressure Visibility Wind Dir Wind Speed Gust Speed Precip Events Conditions
12:53 AM 27.0 °F 19.5 °F 10.9 °F 51% 30.10 in 10.0 mi West 6.9 mph - N/A   Overcast
1:53 AM 28.0 °F - 12.0 °F 51% 30.10 in 10.0 mi Calm Calm - N/A   Overcast
2:53 AM 27.0 °F 23.0 °F 12.9 °F 56% 30.09 in 10.0 mi SW 3.5 mph - N/A   Mostly Cloudy
3:53 AM 26.1 °F 19.4 °F 12.0 °F 55% 30.08 in 10.0 mi SW 5.8 mph - N/A   Mostly Cloudy
4:53 AM 27.0 °F 21.6 °F 12.9 °F 56% 30.07 in 10.0 mi SW 4.6 mph - N/A   Overcast
5:53 AM 27.0 °F 23.0 °F 12.0 °F 53% 30.06 in 10.0 mi WSW 3.5 mph - N/A   Overcast
6:53 AM 26.1 °F 20.5 °F 12.9 °F 58% 30.05 in 10.0 mi SSW 4.6 mph - N/A   Overcast
7:53 AM 26.1 °F 21.9 °F 14.0 °F 60% 30.05 in 10.0 mi SSW 3.5 mph - N/A   Overcast
8:53 AM 27.0 °F 19.5 °F 14.0 °F 58% 30.04 in 10.0 mi SSW 6.9 mph - N/A   Overcast
9:53 AM 28.0 °F 20.0 °F 12.9 °F 53% 30.04 in 10.0 mi SW 8.1 mph - N/A   Overcast
10:53 AM 30.0 °F 21.7 °F 12.9 °F 49% 30.01 in 10.0 mi SW 9.2 mph - N/A   Overcast
11:53 AM 32.0 °F 21.2 °F 12.0 °F 44% 29.97 in 10.0 mi SW 16.1 mph 24.2 mph N/A   Overcast
12:53 PM 33.1 °F 20.9 °F 12.0 °F 42% 29.92 in 10.0 mi SW 21.9 mph 27.6 mph N/A   Mostly Cloudy
1:53 PM 33.1 °F 23.9 °F 12.9 °F 43% 29.91 in 10.0 mi West 12.7 mph 23.0 mph N/A   Overcast
2:53 PM 30.0 °F 18.7 °F 16.0 °F 56% 29.94 in 9.0 mi West 16.1 mph 26.5 mph 0.00 in Snow Light Snow
3:53 PM 28.0 °F 18.1 °F 19.0 °F 69% 29.96 in 9.0 mi WNW 11.5 mph 18.4 mph 0.00 in   Overcast
4:53 PM 26.1 °F 15.0 °F 16.0 °F 66% 29.98 in 10.0 mi West 12.7 mph 19.6 mph N/A   Overcast
5:20 PM 26.6 °F 15.7 °F 17.6 °F 69% 29.96 in 2.0 mi WNW 12.7 mph 18.4 mph 0.00 in Snow Light Snow
5:22 PM 24.8 °F 12.9 °F 17.6 °F 74% 29.96 in 1.5 mi WNW 13.8 mph 19.6 mph 0.00 in Snow Light Snow
5:53 PM 24.1 °F 15.2 °F 19.0 °F 81% 30.00 in 7.0 mi West 8.1 mph 17.3 mph 0.00 in Snow Light Snow
6:05 PM 24.8 °F 13.4 °F 17.6 °F 74% 29.97 in 10.0 mi West 12.7 mph - 0.00 in   Overcast
6:53 PM 24.1 °F 12.5 °F 16.0 °F 71% 30.02 in 3.0 mi WNW 12.7 mph 23.0 mph 0.00 in Snow Light Snow
7:15 PM 23.0 °F 10.6 °F 14.0 °F 68% 29.99 in 9.0 mi West 13.8 mph 25.3 mph 0.00 in Snow Light Snow
7:43 PM 21.2 °F 7.8 °F 15.8 °F 80% 29.99 in 1.8 mi WNW 15.0 mph 20.7 mph 0.00 in Snow Light Snow
7:51 PM 21.2 °F 10.9 °F 15.8 °F 80% 29.99 in 1.8 mi WNW 9.2 mph 20.7 mph 0.00 in Snow Light Snow
7:53 PM 21.0 °F 8.1 °F 16.0 °F 81% 30.03 in 2.0 mi WNW 13.8 mph 23.0 mph 0.00 in Snow Light Snow
8:11 PM 21.2 °F 7.8 °F 12.2 °F 68% 29.99 in 4.0 mi West 15.0 mph 21.9 mph 0.00 in   Haze
8:53 PM 21.0 °F 8.6 °F 10.0 °F 63% 30.04 in 10.0 mi West 12.7 mph 24.2 mph 0.00 in   Overcast
9:53 PM 19.0 °F 4.0 °F 6.1 °F 57% 30.07 in 10.0 mi West 17.3 mph 25.3 mph N/A   Overcast
10:53 PM 17.1 °F 2.5 °F 3.9 °F 56% 30.08 in 10.0 mi WNW 15.0 mph 24.2 mph N/A   Mostly Cloudy
11:53 PM 15.1 °F -2.0 °F -0.0 °F 51% 30.09 in 10.0 mi WNW 19.6 mph 28.8 mph N/A   Partly Cloudy